| time (UTC) | temp C | wind direction | speed KPH | gust KPH | rain 1hr cm | rain 24hr cm | rain mn cm | humidity % | barometer mb |
| 20260503203022 | 8 | 178 | 0.0 | 0.0 | 0.00 | 0.00 | 0.00 | 89 | 1007.2 |
| 20260503201519 | 8 | 199 | 0.0 | 0.0 | 0.00 | 0.00 | 0.00 | 88 | 1007.2 |
| 20260503200017 | 8 | 200 | 0.0 | 0.0 | 0.00 | 0.00 | 0.00 | 87 | 1007.3 |
| 20260503194514 | 8 | 200 | 0.0 | 0.0 | 0.00 | 0.00 | 0.00 | 87 | 1007.6 |
| 20260503193023 | 8 | 200 | 0.0 | 0.0 | 0.00 | 0.00 | 0.00 | 86 | 1007.7 |
| 20260503191527 | 9 | 200 | 0.0 | 0.0 | 0.00 | 0.00 | 0.00 | 85 | 1007.8 |
| 20260503190024 | 10 | 199 | 0.0 | 0.0 | 0.00 | 0.00 | 0.00 | 84 | 1007.8 |
| 20260503184512 | 10 | 199 | 0.0 | 0.0 | 0.00 | 0.00 | 0.00 | 84 | 1007.7 |
| 20260503183012 | 11 | 199 | 0.0 | 0.0 | 0.00 | 0.00 | 0.00 | 84 | 1007.7 |
| 20260503181512 | 11 | 202 | 0.0 | 0.0 | 0.00 | 0.00 | 0.00 | 83 | 1007.7 |
| 20260503180011 | 11 | 186 | 0.0 | 0.0 | 0.00 | 0.00 | 0.00 | 82 | 1007.7 |
| 20260503174509 | 11 | 186 | 0.0 | 0.0 | 0.00 | 0.00 | 0.00 | 81 | 1007.6 |
| 20260503173009 | 11 | 183 | 0.0 | 0.0 | 0.00 | 0.00 | 0.00 | 81 | 1007.9 |
| 20260503171507 | 11 | 180 | 0.0 | 0.0 | 0.00 | 0.00 | 0.00 | 82 | 1008.0 |
| 20260503100106 | 10 | 236 | 0.0 | 0.0 | 0.00 | 0.00 | 0.00 | 92 | 1009.2 |
| 20260503081503 | 10 | 187 | 0.0 | 0.0 | 0.00 | 0.00 | 0.00 | 91 | 1009.0 |
| 20260503071613 | 10 | 184 | 0.0 | 0.0 | 0.00 | 0.00 | 0.00 | 91 | 1008.5 |
| 20260503054611 | 9 | 360 | 0.0 | 0.0 | 0.00 | 0.00 | 0.00 | 90 | 1008.2 |
| 20260503053056 | 9 | 219 | 0.0 | 0.0 | 0.00 | 0.00 | 0.00 | 90 | 1008.3 |
| 20260503051557 | 9 | 218 | 0.0 | 0.0 | 0.00 | 0.00 | 0.00 | 90 | 1008.2 |
| 20260503050057 | 9 | 211 | 0.0 | 0.0 | 0.00 | 0.00 | 0.00 | 89 | 1008.2 |
| 20260503044556 | 9 | 273 | 0.0 | 0.0 | 0.00 | 0.00 | 0.00 | 89 | 1008.2 |
| 20260503043059 | 9 | 229 | 0.0 | 0.0 | 0.00 | 0.00 | 0.00 | 88 | 1008.2 |
| 20260503041553 | 9 | 248 | 0.0 | 0.0 | 0.00 | 0.00 | 0.00 | 88 | 1008.2 |
| 20260503040055 | 10 | 205 | 0.0 | 0.0 | 0.00 | 0.00 | 0.00 | 88 | 1008.3 |
| 20260503034552 | 10 | 191 | 0.0 | 0.0 | 0.00 | 0.00 | 0.00 | 88 | 1008.2 |
| 20260503033052 | 10 | 192 | 0.0 | 0.0 | 0.00 | 0.00 | 0.00 | 88 | 1008.0 |
| 20260503031551 | 10 | 229 | 0.0 | 0.0 | 0.00 | 0.00 | 0.00 | 88 | 1008.1 |
| 20260503030051 | 10 | 199 | 0.0 | 0.0 | 0.00 | 0.00 | 0.00 | 88 | 1008.2 |
| 20260503024550 | 10 | 217 | 0.0 | 0.0 | 0.00 | 0.00 | 0.00 | 88 | 1008.2 |
| 20260503023054 | 10 | 214 | 0.0 | 0.0 | 0.00 | 0.00 | 0.00 | 88 | 1008.1 |
| 20260503021552 | 10 | 213 | 0.0 | 0.0 | 0.00 | 0.00 | 0.00 | 88 | 1008.1 |
| 20260503020051 | 10 | 218 | 0.0 | 0.0 | 0.00 | 0.00 | 0.00 | 88 | 1008.2 |
| 20260503014559 | 10 | 191 | 0.0 | 0.0 | 0.00 | 0.00 | 0.00 | 87 | 1008.1 |
| 20260503013049 | 10 | 198 | 0.0 | 0.0 | 0.00 | 0.00 | 0.00 | 87 | 1008.1 |
| 20260503011551 | 10 | 183 | 0.0 | 0.0 | 0.00 | 0.00 | 0.00 | 87 | 1008.2 |
| 20260503010051 | 10 | 215 | 0.0 | 0.0 | 0.00 | 0.00 | 0.00 | 87 | 1008.3 |
| 20260503004548 | 10 | 265 | 0.0 | 0.0 | 0.00 | 0.00 | 0.00 | 86 | 1008.6 |
| 20260503003047 | 10 | 189 | 0.0 | 0.0 | 0.00 | 0.00 | 0.00 | 85 | 1008.7 |
| 20260503001548 | 10 | 360 | 0.0 | 0.0 | 0.00 | 0.00 | 0.00 | 85 | 1008.6 |
| 20260503000044 | 10 | 189 | 0.0 | 0.0 | 0.00 | 0.00 | 0.00 | 85 | 1008.9 |
| 20260502234550 | 10 | 189 | 0.0 | 0.0 | 0.00 | 0.00 | 0.00 | 84 | 1008.9 |
| 20260502233042 | 10 | 188 | 0.0 | 0.0 | 0.00 | 0.00 | 0.00 | 83 | 1009.0 |
| 20260502231539 | 10 | 182 | 0.0 | 0.0 | 0.00 | 0.00 | 0.00 | 82 | 1009.0 |
| 20260502230038 | 11 | 187 | 0.0 | 0.0 | 0.00 | 0.00 | 0.00 | 81 | 1009.0 |
| 20260502224543 | 11 | 223 | 0.0 | 0.0 | 0.00 | 0.00 | 0.00 | 79 | 1008.9 |
| 20260502223040 | 11 | 173 | 0.0 | 0.0 | 0.00 | 0.00 | 0.00 | 77 | 1009.0 |
| 20260502221536 | 11 | 187 | 0.0 | 0.0 | 0.00 | 0.00 | 0.00 | 75 | 1009.2 |
| 20260502220034 | 11 | 360 | 0.0 | 0.0 | 0.00 | 0.00 | 0.00 | 74 | 1009.3 |
| 20260502214542 | 11 | 219 | 0.0 | 0.0 | 0.00 | 0.00 | 0.00 | 72 | 1009.4 |
| 20260502213032 | 11 | 227 | 0.0 | 0.0 | 0.00 | 0.00 | 0.00 | 71 | 1009.3 |
| 20260502211533 | 11 | 149 | 0.0 | 0.0 | 0.00 | 0.00 | 0.00 | 69 | 1009.1 |
| 20260502210035 | 12 | 360 | 0.0 | 0.0 | 0.00 | 0.00 | 0.00 | 69 | 1009.2 |
| 20260502204529 | 12 | 223 | 0.0 | 0.0 | 0.00 | 0.00 | 0.00 | 68 | 1009.3 |